KD7TTL Weather Reports


Display with metric or nautical units.
time (UTC)temp
F
wind
direction
speed
MPH
gust
MPH
rain 1hr
in
rain 24hr
in
rain mn
in
humidity
%
barometer
mb
20260504130503 48 9 0.0 1.0 0.00 0.00 0.00 93 1011.0
20260504110502 49 51 0.0 2.0 0.00 0.00 0.00 91 1011.0
20260504100502 49 9 0.0 1.0 0.00 0.00 0.00 90 1011.0
20260504082003 51 309 0.0 2.0 0.00 0.00 0.00 86 1011.0
20260504081521 51 309 0.0 1.0 0.00 0.00 0.00 86 1011.0
20260504081003 52 51 0.0 1.0 0.00 0.00 0.00 85 1011.0
20260504080503 52 51 0.0 1.0 0.00 0.00 0.00 85 1011.1
20260504050503 59 51 0.0 1.0 0.00 0.00 0.00 68 1011.2
20260504050002 59 9 0.0 1.0 0.00 0.00 0.00 67 1011.2
20260504045502 60 51 0.0 1.0 0.00 0.00 0.00 66 1011.2
20260504045002 60 325 0.0 1.0 0.00 0.00 0.00 65 1011.3
20260504044503 61 265 0.0 1.0 0.00 0.00 0.00 64 1011.2
20260504044002 61 51 0.0 1.0 0.00 0.00 0.00 64 1011.1
20260504043502 62 309 0.0 1.0 0.00 0.00 0.00 63 1011.1
20260504043003 62 319 0.0 2.0 0.00 0.00 0.00 61 1011.0
20260504042503 63 93 0.0 2.0 0.00 0.00 0.00 60 1011.1
20260504042003 63 51 0.0 1.0 0.00 0.00 0.00 57 1011.0
20260504041505 64 265 0.0 1.0 0.00 0.00 0.00 57 1011.1
20260504041003 64 9 0.0 1.0 0.00 0.00 0.00 56 1011.1
20260504040503 65 309 0.0 1.0 0.00 0.00 0.00 55 1011.1
20260504040006 65 9 0.0 1.0 0.00 0.00 0.00 54 1011.1
20260504035504 66 93 0.0 1.0 0.00 0.00 0.00 53 1010.9
20260504035004 66 309 0.0 1.0 0.00 0.00 0.00 53 1010.8
20260504034505 67 291 0.0 1.0 0.00 0.00 0.00 51 1010.9
20260504034002 67 51 0.0 1.0 0.00 0.00 0.00 50 1010.8
20260504033502 67 51 0.0 2.0 0.00 0.00 0.00 50 1010.7
20260504033002 68 309 1.0 2.0 0.00 0.00 0.00 47 1010.7
20260504032503 69 282 0.0 2.0 0.00 0.00 0.00 47 1010.6
20260504032005 69 9 0.0 2.0 0.00 0.00 0.00 46 1010.6
20260504031504 70 265 0.0 2.0 0.00 0.00 0.00 46 1010.6
20260504031003 70 292 0.0 1.0 0.00 0.00 0.00 43 1010.7
20260504030504 70 93 0.0 1.0 0.00 0.00 0.00 43 1010.7
20260504030003 70 9 0.0 4.0 0.00 0.00 0.00 44 1010.7
20260504025504 71 9 1.0 4.0 0.00 0.00 0.00 44 1010.8
20260504025004 71 51 0.0 4.0 0.00 0.00 0.00 44 1010.8
20260504024507 71 279 0.0 3.0 0.00 0.00 0.00 45 1010.8
20260504024004 71 225 0.0 4.0 0.00 0.00 0.00 44 1010.8
20260504023503 72 51 0.0 4.0 0.00 0.00 0.00 43 1010.7
20260504023004 72 9 0.0 3.0 0.00 0.00 0.00 43 1010.7
20260504022503 72 76 0.0 3.0 0.00 0.00 0.00 43 1010.7
20260504022004 73 309 0.0 3.0 0.00 0.00 0.00 44 1010.8
20260504021504 73 41 0.0 4.0 0.00 0.00 0.00 42 1010.8
20260504021003 73 49 1.0 5.0 0.00 0.00 0.00 42 1010.9
20260504020502 73 93 0.0 5.0 0.00 0.00 0.00 42 1010.9
20260504020006 74 239 2.0 5.0 0.00 0.00 0.00 42 1010.9
20260504015502 74 34 1.0 5.0 0.00 0.00 0.00 43 1010.9
20260504015004 74 31 1.0 3.0 0.00 0.00 0.00 42 1011.0
20260504014504 75 61 0.0 4.0 0.00 0.00 0.00 43 1011.0
20260504014003 75 316 0.0 5.0 0.00 0.00 0.00 43 1011.0
20260504013505 75 34 1.0 5.0 0.00 0.00 0.00 42 1011.0
20260504013004 75 43 0.0 3.0 0.00 0.00 0.00 43 1011.0
20260504012508 75 51 1.0 3.0 0.00 0.00 0.00 44 1011.0
20260504012015 75 93 0.0 5.0 0.00 0.00 0.00 44 1011.1
20260504011522 75 51 1.0 5.0 0.00 0.00 0.00 43 1011.1
20260504011008 76 9 2.0 6.0 0.00 0.00 0.00 43 1011.2
20260504010508 76 265 0.0 6.0 0.00 0.00 0.00 43 1011.3
20260504010023 76 178 0.0 4.0 0.00 0.00 0.00 44 1011.3
20260504005507 76 44 1.0 10.0 0.00 0.00 0.00 44 1011.4
20260504005009 76 38 1.0 10.0 0.00 0.00 0.00 44 1011.4
20260504004522 77 178 1.0 6.0 0.00 0.00 0.00 44 1011.4
20260504004011 77 51 1.0 6.0 0.00 0.00 0.00 45 1011.4
20260504003512 78 93 2.0 6.0 0.00 0.00 0.00 46 1011.4
20260504003020 78 247 1.0 12.0 0.00 0.00 0.00 44 1011.4
20260504002506 78 33 4.0 12.0 0.00 0.00 0.00 45 1011.4
20260504002010 78 15 1.0 8.0 0.00 0.00 0.00 45 1011.4
20260504001522 78 247 2.0 9.0 0.00 0.00 0.00 44 1011.5
20260504001008 79 40 3.0 9.0 0.00 0.00 0.00 43 1011.5
20260504000508 79 270 1.0 7.0 0.00 0.00 0.00 44 1011.6
20260504000025 79 24 1.0 6.0 0.00 0.00 0.00 45 1011.6
20260503235508 79 9 1.0 4.0 0.00 0.00 0.00 44 1011.7
20260503235007 79 298 1.0 7.0 0.00 0.00 0.00 43 1011.7
20260503234537 80 34 3.0 7.0 0.00 0.00 0.00 41 1011.7
20260503234011 80 325 2.0 5.0 0.00 0.00 0.00 44 1011.7
20260503233510 80 255 1.0 4.0 0.00 0.00 0.00 44 1011.7
20260503233027 80 51 1.0 6.0 0.00 0.00 0.00 42 1011.8
20260503232509 80 26 3.0 6.0 0.00 0.00 0.00 43 1011.9
20260503232010 80 334 1.0 10.0 0.00 0.00 0.00 44 1011.9
20260503231522 80 309 3.0 10.0 0.00 0.00 0.00 43 1012.0
20260503231013 80 338 3.0 9.0 0.00 0.00 0.00 41 1012.0
20260503230512 80 56 1.0 6.0 0.00 0.00 0.00 42 1012.1
20260503230005 80 16 3.0 6.0 0.00 0.00 0.00 42 1012.2
20260503225503 80 80 2.0 5.0 0.00 0.00 0.00 41 1012.3
20260503225004 80 47 1.0 7.0 0.00 0.00 0.00 43 1012.3
20260503224503 80 266 3.0 7.0 0.00 0.00 0.00 43 1012.4
20260503224002 80 28 1.0 9.0 0.00 0.00 0.00 42 1012.5
20260503223502 80 287 1.0 9.0 0.00 0.00 0.00 43 1012.5
20260503223004 80 25 2.0 5.0 0.00 0.00 0.00 45 1012.5
20260503222503 80 241 2.0 8.0 0.00 0.00 0.00 45 1012.7
20260503222004 80 215 3.0 8.0 0.00 0.00 0.00 44 1012.8
20260503221504 80 39 1.0 8.0 0.00 0.00 0.00 45 1012.9
20260503221005 79 68 2.0 12.0 0.00 0.00 0.00 48 1012.9
20260503220503 79 20 2.0 12.0 0.00 0.00 0.00 46 1012.9
20260503220010 80 9 3.0 6.0 0.00 0.00 0.00 45 1013.0
20260503215503 80 93 1.0 6.0 0.00 0.00 0.00 45 1013.1
20260503215002 80 9 1.0 8.0 0.00 0.00 0.00 51 1013.1
20260503214502 79 22 2.0 9.0 0.00 0.00 0.00 47 1013.2
20260503214003 79 38 3.0 9.0 0.00 0.00 0.00 46 1013.2
20260503213503 79 22 2.0 8.0 0.00 0.00 0.00 47 1013.4
20260503213008 78 309 1.0 6.0 0.00 0.00 0.00 48 1013.3
20260503212502 78 124 1.0 6.0 0.00 0.00 0.00 48 1013.3
20260503212002 78 83 2.0 13.0 0.00 0.00 0.00 49 1013.5
20260503211504 78 305 2.0 13.0 0.00 0.00 0.00 47 1013.5
20260503211003 78 42 2.0 9.0 0.00 0.00 0.00 50 1013.5
20260503210501 78 9 2.0 9.0 0.00 0.00 0.00 46 1013.5
20260503210003 78 57 2.0 11.0 0.00 0.00 0.00 47 1013.6
20260503205503 78 26 1.0 11.0 0.00 0.00 0.00 49 1013.6
20260503205003 77 20 2.0 15.0 0.00 0.00 0.00 47 1013.7
20260503204504 77 24 5.0 15.0 0.00 0.00 0.00 49 1013.7
20260503204003 78 18 1.0 7.0 0.00 0.00 0.00 47 1013.7
20260503203505 77 137 1.0 7.0 0.00 0.00 0.00 50 1013.8
20260503203003 77 57 1.0 7.0 0.00 0.00 0.00 45 1013.8
20260503202503 77 137 1.0 7.0 0.00 0.00 0.00 47 1013.8
20260503202002 76 26 2.0 6.0 0.00 0.00 0.00 49 1013.8
20260503201503 76 158 2.0 6.0 0.00 0.00 0.00 49 1014.0
20260503201006 76 16 2.0 6.0 0.00 0.00 0.00 54 1014.0
20260503200501 76 83 2.0 9.0 0.00 0.00 0.00 48 1014.0
20260503200005 76 53 2.0 9.0 0.00 0.00 0.00 49 1014.1
20260503195502 75 9 3.0 7.0 0.00 0.00 0.00 45 1014.3
20260503195001 75 178 1.0 11.0 0.00 0.00 0.00 48 1014.4
20260503194506 74 59 5.0 11.0 0.00 0.00 0.00 46 1014.4
20260503194002 74 80 1.0 7.0 0.00 0.00 0.00 50 1014.4
20260503193503 74 111 2.0 7.0 0.00 0.00 0.00 53 1014.5
20260503193003 74 93 1.0 7.0 0.00 0.00 0.00 49 1014.6
20260503192502 74 237 2.0 7.0 0.00 0.00 0.00 53 1014.6
20260503192005 74 72 3.0 6.0 0.00 0.00 0.00 54 1014.7
20260503191505 74 282 2.0 9.0 0.00 0.00 0.00 57 1014.7
20260503191007 73 193 2.0 10.0 0.00 0.00 0.00 55 1014.7
20260503190503 73 31 5.0 10.0 0.00 0.00 0.00 56 1014.7
20260503190002 73 85 3.0 7.0 0.00 0.00 0.00 52 1014.8
20260503185503 73 196 2.0 6.0 0.00 0.00 0.00 62 1014.8
20260503185003 72 178 1.0 10.0 0.00 0.00 0.00 59 1014.9
20260503184505 72 211 2.0 13.0 0.00 0.00 0.00 58 1015.0
20260503184003 72 55 6.0 13.0 0.00 0.00 0.00 59 1015.1
20260503183502 72 265 1.0 6.0 0.00 0.00 0.00 63 1015.1
20260503183002 71 232 1.0 6.0 0.00 0.00 0.00 62 1015.2
20260503182502 71 51 3.0 9.0 0.00 0.00 0.00 59 1015.3
20260503182002 71 30 2.0 9.0 0.00 0.00 0.00 61 1015.3
20260503181503 71 45 2.0 7.0 0.00 0.00 0.00 62 1015.3
20260503181003 71 43 2.0 8.0 0.00 0.00 0.00 60 1015.3
20260503180503 71 341 2.0 8.0 0.00 0.00 0.00 62 1015.3
20260503180005 70 9 2.0 8.0 0.00 0.00 0.00 63 1015.3
20260503175502 70 26 3.0 7.0 0.00 0.00 0.00 61 1015.4
20260503175003 70 291 3.0 7.0 0.00 0.00 0.00 59 1015.6
20260503174502 70 178 2.0 5.0 0.00 0.00 0.00 61 1015.5
20260503174003 70 111 2.0 6.0 0.00 0.00 0.00 60 1015.5
20260503173503 70 38 2.0 6.0 0.00 0.00 0.00 61 1015.5
20260503173003 69 232 1.0 4.0 0.00 0.00 0.00 64 1015.5
20260503172502 69 68 0.0 5.0 0.00 0.00 0.00 63 1015.5
20260503172002 68 41 3.0 5.0 0.00 0.00 0.00 61 1015.5
20260503171502 68 250 1.0 5.0 0.00 0.00 0.00 65 1015.5
20260503171003 67 38 2.0 5.0 0.00 0.00 0.00 62 1015.6
20260503170505 67 93 1.0 6.0 0.00 0.00 0.00 64 1015.5
20260503151009 51 9 0.0 1.0 0.00 0.00 0.00 96 1016.0
20260503150509 50 265 0.0 1.0 0.00 0.00 0.00 96 1016.0